timestamp,surface_pressure_avg,surface_temp_avg,battery_voltage,lat,long
2017-11-06 00:00:00+00:00,354.1112,9.81,12.97,47.84626,-54.09684
2017-11-06 00:10:00+00:00,361.3645,9.87,12.89,47.84626,-54.09684
2017-11-06 00:20:00+00:00,360.0679,9.83,12.97,47.84626,-54.09684
2017-11-06 00:30:00+00:00,355.3263,9.88,12.97,47.84626,-54.09684
2017-11-06 00:40:00+00:00,358.4913,9.88,12.97,47.84626,-54.09684
2017-11-06 00:50:00+00:00,361.0946,9.89,12.97,47.84626,-54.09684
2017-11-06 01:00:00+00:00,353.1929,9.9,12.89,47.84626,-54.09684
2017-11-06 01:10:00+00:00,345.233,9.89,12.81,47.84626,-54.09684
2017-11-06 01:20:00+00:00,346.3113,9.89,12.89,47.84626,-54.09684
2017-11-06 01:30:00+00:00,342.6096,9.9,12.89,47.84626,-54.09684
2017-11-06 01:40:00+00:00,333.8347,9.8,12.97,47.84626,-54.09684
2017-11-06 01:50:00+00:00,330.1313,9.7,12.97,47.84626,-54.09684
2017-11-06 02:00:00+00:00,331.4747,9.7,12.89,47.84626,-54.09684
2017-11-06 02:10:00+00:00,325.913,9.7,12.81,47.84626,-54.09684
2017-11-06 02:20:00+00:00,312.743,9.5,12.89,47.84626,-54.09684
2017-11-06 02:30:00+00:00,310.2581,9.4,12.89,47.84626,-54.09684
2017-11-06 02:40:00+00:00,305.9464,9.4,12.89,47.84626,-54.09684
2017-11-06 02:50:00+00:00,292.813,9.3,12.89,47.84626,-54.09684
2017-11-06 03:00:00+00:00,282.2764,9.19,12.81,47.84626,-54.09684
2017-11-06 03:10:00+00:00,277.3314,9.1,12.81,47.84626,-54.09684
2017-11-06 03:20:00+00:00,272.7814,9.0,12.89,47.84626,-54.09684
2017-11-06 03:30:00+00:00,257.4714,8.6,12.89,47.84626,-54.09684
2017-11-06 03:40:00+00:00,245.8463,8.93,12.89,47.84626,-54.09684
2017-11-06 03:50:00+00:00,238.6698,9.0,12.89,47.84626,-54.09684
2017-11-06 04:00:00+00:00,227.7931,8.8,12.81,47.84626,-54.09684
2017-11-06 04:10:00+00:00,213.9431,8.97,12.73,47.84626,-54.09684
2017-11-06 04:20:00+00:00,200.3265,8.9,12.81,47.84626,-54.09684
2017-11-06 04:30:00+00:00,190.6898,8.7,12.81,47.84626,-54.09684
2017-11-06 04:40:00+00:00,181.5248,8.69,12.89,47.84626,-54.09684
2017-11-06 04:50:00+00:00,172.4064,8.67,12.89,47.84626,-54.09684
2017-11-06 05:00:00+00:00,169.6815,8.7,12.81,47.84626,-54.09684
2017-11-06 05:10:00+00:00,165.9215,8.7,12.73,47.84626,-54.09684
2017-11-06 05:20:00+00:00,158.5882,8.6,12.81,47.84626,-54.09684
2017-11-06 05:30:00+00:00,153.1649,8.59,12.81,47.84626,-54.09684
2017-11-06 05:40:00+00:00,151.6182,8.6,12.81,47.84626,-54.09684
2017-11-06 05:50:00+00:00,150.3665,8.8,12.81,47.84626,-54.09684
2017-11-06 06:00:00+00:00,146.3748,8.83,12.81,47.84626,-54.09684
2017-11-06 06:10:00+00:00,144.6848,8.84,12.73,47.84626,-54.09684
2017-11-06 06:20:00+00:00,146.0999,8.9,12.81,47.84626,-54.09684
2017-11-06 06:30:00+00:00,145.4765,8.9,12.81,47.84626,-54.09684
2017-11-06 06:40:00+00:00,148.5098,8.97,12.81,47.84626,-54.09684
2017-11-06 06:50:00+00:00,152.2532,9.0,12.81,47.84626,-54.09684
2017-11-06 07:00:00+00:00,150.3248,9.0,12.81,47.84626,-54.09684
2017-11-06 07:10:00+00:00,152.6882,9.04,12.73,47.84626,-54.09684
2017-11-06 07:20:00+00:00,159.1465,9.19,12.81,47.84626,-54.09684
2017-11-06 07:30:00+00:00,158.4749,9.28,12.81,47.84626,-54.09684
2017-11-06 07:40:00+00:00,162.4848,9.36,12.81,47.84626,-54.09684
2017-11-06 07:50:00+00:00,174.3031,9.59,12.81,47.84626,-54.09684
2017-11-06 08:00:00+00:00,179.0648,9.71,12.81,47.84626,-54.09684
2017-11-06 08:10:00+00:00,184.9698,9.79,12.73,47.84626,-54.09684
2017-11-06 08:20:00+00:00,197.9281,9.8,12.81,47.84626,-54.09684
2017-11-06 08:30:00+00:00,204.9465,9.81,12.81,47.84626,-54.09684
2017-11-06 08:40:00+00:00,203.4498,9.86,12.81,47.84626,-54.09684
2017-11-06 08:50:00+00:00,206.4831,9.8,12.81,47.84626,-54.09684
2017-11-06 09:00:00+00:00,217.2215,9.8,12.81,47.84626,-54.09684
2017-11-06 09:10:00+00:00,220.8665,9.8,12.73,47.84626,-54.09684
2017-11-06 09:20:00+00:00,222.3131,9.8,12.81,47.84626,-54.09684
2017-11-06 09:30:00+00:00,230.3047,9.7,12.81,47.84626,-54.09684
2017-11-06 09:40:00+00:00,240.8214,9.78,12.81,47.84626,-54.09684
2017-11-06 09:50:00+00:00,246.2264,9.8,12.81,47.84626,-54.09684
2017-11-06 10:00:00+00:00,249.9398,9.8,12.81,47.84626,-54.09684
2017-11-06 10:10:00+00:00,257.4631,9.8,12.73,47.84626,-54.09684
2017-11-06 10:20:00+00:00,269.3614,9.9,12.81,47.84626,-54.09684
2017-11-06 10:30:00+00:00,274.9831,9.9,12.81,47.84626,-54.09684
2017-11-06 10:40:00+00:00,280.6997,9.89,12.81,47.84626,-54.09684
2017-11-06 10:50:00+00:00,293.3114,9.9,12.81,47.84626,-54.09684
2017-11-06 11:00:00+00:00,307.2681,9.9,12.81,47.84626,-54.09684
2017-11-06 11:10:00+00:00,313.6997,9.8,12.97,47.84626,-54.09684
2017-11-06 11:20:00+00:00,321.0813,9.7,13.05,47.84626,-54.09684
2017-11-06 11:30:00+00:00,332.108,9.6,13.05,47.84626,-54.09684
2017-11-06 11:40:00+00:00,341.7997,9.6,13.05,47.84626,-54.09684
2017-11-06 11:50:00+00:00,346.1664,9.67,13.05,47.84626,-54.09684
2017-11-06 12:00:00+00:00,350.1096,9.8,13.05,47.84626,-54.09684
2017-11-06 12:10:00+00:00,360.0545,9.8,12.97,47.84626,-54.09684
2017-11-06 12:20:00+00:00,365.7129,9.76,12.97,47.84626,-54.09684
2017-11-06 12:30:00+00:00,367.258,9.87,13.05,47.84626,-54.09684
2017-11-06 12:40:00+00:00,367.7296,9.96,13.21,47.84626,-54.09684
2017-11-06 12:50:00+00:00,374.6946,10.0,13.29,47.84626,-54.09684
2017-11-06 13:00:00+00:00,381.8779,9.9,13.29,47.84626,-54.09684
2017-11-06 13:10:00+00:00,379.4847,9.95,13.29,47.84626,-54.09684
2017-11-06 13:20:00+00:00,378.4113,10.0,13.6,47.84626,-54.09684
2017-11-06 13:30:00+00:00,379.8613,9.97,13.84,47.84626,-54.09684
2017-11-06 13:40:00+00:00,374.9946,9.97,13.6,47.84626,-54.09684
2017-11-06 13:50:00+00:00,366.4529,9.98,13.44,47.84626,-54.09684
2017-11-06 14:00:00+00:00,366.0312,9.87,13.53,47.84626,-54.09684
2017-11-06 14:10:00+00:00,364.923,9.8,13.37,47.84626,-54.09684
2017-11-06 14:20:00+00:00,359.0246,9.8,13.44,47.84626,-54.09684
2017-11-06 14:30:00+00:00,356.158,9.85,13.37,47.84626,-54.09684
2017-11-06 14:40:00+00:00,353.5446,9.9,13.37,47.84626,-54.09684
2017-11-06 14:50:00+00:00,344.8196,9.9,13.37,47.84626,-54.09684
2017-11-06 15:00:00+00:00,335.2713,9.9,13.37,47.84626,-54.09684
2017-11-06 15:10:00+00:00,327.0129,9.9,13.29,47.84626,-54.09684
2017-11-06 15:20:00+00:00,314.2113,9.88,13.29,47.84626,-54.09684
2017-11-06 15:30:00+00:00,299.623,9.85,13.37,47.84626,-54.09684
2017-11-06 15:40:00+00:00,293.2147,9.8,13.44,47.84626,-54.09684
2017-11-06 15:50:00+00:00,284.0848,9.8,13.68,47.84626,-54.09684
2017-11-06 16:00:00+00:00,271.0914,9.8,13.6,47.84626,-54.09684
2017-11-06 16:10:00+00:00,258.3431,9.8,13.37,47.84626,-54.09684
2017-11-06 16:20:00+00:00,251.8314,9.8,13.68,47.84626,-54.09684
2017-11-06 16:30:00+00:00,241.6664,9.8,13.53,47.84626,-54.09684
2017-11-06 16:40:00+00:00,226.5214,9.8,13.53,47.84626,-54.09684
2017-11-06 16:50:00+00:00,214.4764,9.8,13.44,47.84626,-54.09684
2017-11-06 17:00:00+00:00,203.5981,9.8,13.44,47.84626,-54.09684
2017-11-06 17:10:00+00:00,192.8198,9.8,13.29,47.84626,-54.09684
2017-11-06 17:20:00+00:00,184.1348,9.8,13.37,47.84626,-54.09684
2017-11-06 17:30:00+00:00,177.1431,9.8,13.37,47.84626,-54.09684
2017-11-06 17:40:00+00:00,172.9315,9.8,13.44,47.84626,-54.09684
2017-11-06 17:50:00+00:00,166.1365,9.8,13.92,47.84626,-54.09684
2017-11-06 18:00:00+00:00,161.4848,9.8,13.6,47.84626,-54.09684
2017-11-06 18:10:00+00:00,159.9366,9.8,13.37,47.84626,-54.09684
2017-11-06 18:20:00+00:00,153.3698,9.8,13.44,47.84626,-54.09684
2017-11-06 18:30:00+00:00,147.9165,9.8,13.37,47.84626,-54.09684
2017-11-06 18:40:00+00:00,151.0815,9.8,13.37,47.84626,-54.09684
2017-11-06 18:50:00+00:00,151.3615,9.84,13.37,47.84626,-54.09684
2017-11-06 19:00:00+00:00,150.7032,9.87,13.29,47.84626,-54.09684
2017-11-06 19:10:00+00:00,156.4598,9.89,13.13,47.84626,-54.09684
2017-11-06 19:20:00+00:00,158.8898,9.9,13.21,47.84626,-54.09684
2017-11-06 19:30:00+00:00,159.6182,9.9,13.21,47.84626,-54.09684
2017-11-06 19:40:00+00:00,165.6415,9.9,13.21,47.84626,-54.09684
2017-11-06 19:50:00+00:00,168.1148,9.9,13.13,47.84626,-54.09684
2017-11-06 20:00:00+00:00,168.3499,9.9,13.05,47.84626,-54.09684
2017-11-06 20:10:00+00:00,173.8265,9.9,13.05,47.84626,-54.09684
2017-11-06 20:20:00+00:00,178.7798,9.9,13.05,47.84626,-54.09684
2017-11-06 20:30:00+00:00,180.8031,9.9,13.05,47.84626,-54.09684
2017-11-06 20:40:00+00:00,186.0565,9.9,13.05,47.84626,-54.09684
2017-11-06 20:50:00+00:00,195.6815,9.9,13.05,47.84626,-54.09684
2017-11-06 21:00:00+00:00,200.4415,9.9,13.05,47.84626,-54.09684
2017-11-06 21:10:00+00:00,202.5181,9.89,12.97,47.84626,-54.09684
2017-11-06 21:20:00+00:00,208.4248,9.87,13.05,47.84626,-54.09684
2017-11-06 21:30:00+00:00,213.5782,9.82,13.05,47.84626,-54.09684
2017-11-06 21:40:00+00:00,218.8197,9.8,13.05,47.84626,-54.09684
2017-11-06 21:50:00+00:00,226.9131,9.8,13.05,47.84626,-54.09684
2017-11-06 22:00:00+00:00,237.5998,9.8,12.97,47.84626,-54.09684
2017-11-06 22:10:00+00:00,242.8748,9.8,12.97,47.84626,-54.09684
2017-11-06 22:20:00+00:00,250.8331,9.8,12.97,47.84626,-54.09684
2017-11-06 22:30:00+00:00,263.1181,9.8,12.97,47.84626,-54.09684
2017-11-06 22:40:00+00:00,267.1081,9.8,13.05,47.84626,-54.09684
2017-11-06 22:50:00+00:00,270.3214,9.8,13.05,47.84626,-54.09684
2017-11-06 23:00:00+00:00,283.468,9.8,12.97,47.84626,-54.09684
2017-11-06 23:10:00+00:00,298.6147,9.8,12.89,47.84626,-54.09684
2017-11-06 23:20:00+00:00,301.4764,9.8,12.97,47.84626,-54.09684
2017-11-06 23:30:00+00:00,307.9547,9.8,12.97,47.84626,-54.09684
2017-11-06 23:40:00+00:00,322.9963,9.8,12.97,47.84626,-54.09684
2017-11-06 23:50:00+00:00,331.0213,9.8,12.97,47.84626,-54.09684
